events-overview

Kinetic Half

 

Overall Women

Lake Anna State Park 4/19/2008 09:00AM

** Results are for the private use of participants and are the Intellectual Property of Set Up Events. Unauthorized use of these results is prohibited.

Place Age Cat. Bib NAME CITY/STATE Rank SWIM Rank T1 Rank BIKE Rank T2 Rank RUN PENALTY TIME DQ
127 175ADRIANNE KROEPSCHWASHINGTON DC1900:34:541400:02:47202:39:06800:01:29101:33:54 04:52:08 
229 300JOCELYN SMITHSEWICKLEY PA1500:34:441000:02:38602:47:141500:01:38301:40:35 05:06:47 
332 33COLLEEN ANGSTADTCHARLOTTE NC4100:38:12700:02:27402:44:251200:01:34401:42:09 05:08:45 
423 348CAROLINE WHITECOLLEGE PARK MD2300:35:52800:02:301502:57:13300:01:12201:34:05 05:10:50 
547 93LISA DUNNWILTON CT1300:33:59200:01:56702:47:17200:01:11901:50:19 05:14:39 
630 327JODI THOMSONUNIVERSITY HEIGHTS OH1100:32:41100:01:541002:51:54500:01:141001:50:45 05:18:25 
738 162CHRISTINA KICHULASILVER SPRING MD3000:36:352400:03:05902:50:231700:01:40601:47:34 05:19:17 
839 233ASHLEY NAELONDAVIDSON NC2900:36:31500:02:03802:48:01400:01:121101:51:35 05:19:20 
928 109NEVA FULKERSONSTONE RIDGE VA700:31:103300:03:221402:55:001800:01:42801:48:59 05:20:12 
1044 176KIMBERLEY KRUSEARLINGTON VA2200:35:37400:02:011202:52:40100:01:07701:48:57 05:20:20 
1128 213SUZY MCCULLOCHELLICOTT CITY MD600:29:501100:02:40302:44:051100:01:332302:05:37 05:23:44 
1244 264LAURA PRUSSINBLACKSBURG VA900:31:292900:03:131602:57:334400:02:301201:55:11 05:29:55 
1339 361JULIE DUKESPASADENA MD3600:37:30900:02:313003:08:32900:01:30501:42:36 05:32:37 
1431 174KERRI KRAMERVIENNA VA2800:36:291900:02:591802:58:143200:02:111301:57:32 05:37:23 
1518 228SAMANTHA MORRISONFREDERICKSBURG VA100:27:316300:04:182603:04:177500:03:581401:59:16 05:39:18 
1631 328DANIELLE TINDERBARBOURSVILLE VA1200:32:55600:02:201102:52:131900:01:433302:12:49 05:41:58 
1728 340KATE WAGNERSTAFFORD VA300:29:213600:03:292903:06:265100:02:522102:03:42 05:45:48 
1829 91KELLY DRIESBACHNEW BERN NC5300:41:153100:03:171903:00:032600:02:011502:00:09 05:46:44 
1926 101KIMBERLY ELZINGADURHAM NC4000:38:001200:02:412703:04:512100:01:441902:01:49 05:49:03 
2035A232STEPHANIE MUTHPHILADELPHIA PA2500:35:581600:02:511302:54:191000:01:313602:15:36 05:50:13 
2132 84SARA DAVISRALEIGH NC3300:36:451700:02:542503:03:584600:02:342902:09:26 05:55:36 
2250 206CONNIE MAXWELLNEWPORT NEWS VA3400:36:504900:03:481702:57:382800:02:034602:22:22 06:02:40 
2329 160MARGARET KEARNEYWASHINGTON DC3700:37:341300:02:422303:01:451600:01:393402:15:0400:04:0006:02:43 
2437 257JILL PIERCECENTREVILLE VA1700:34:474200:03:362203:01:336200:03:284402:19:30 06:02:52 
2542 324STACY TAYLORFAIRFAX VA6300:43:055300:03:533803:12:433400:02:171802:01:43 06:03:39 
2631 183MEGAN M. LANKFORDGLEN ALLEN VA2600:36:027000:04:534503:15:317900:04:122002:03:34 06:04:10 
2744 135MARY ELLEN HASELDENSTAFFORD VA4500:39:075000:03:494003:13:242200:01:442602:07:05 06:05:08 
2835 102MEREDITH EMERSONRICHMOND VA5500:41:303700:03:294703:17:165700:03:091702:01:37 06:07:00 
2931 312SABRINA STEELERICHMOND VA4700:39:306900:04:413303:10:404900:02:472802:09:25 06:07:01 
3035 283SARA SANTOSKIVIRGINIA BEACH VA1800:34:482000:03:003703:12:423000:02:083902:17:27 06:10:04 
PlaceAgeCat.BibNAMECITY/STATERankSWIMRankT1RankBIKERankT2RankRUNPENALTYTIMEDQ
3125 321KAREN TALLEYARLINGTON VA4200:38:244100:03:355703:22:042400:01:482202:04:32 06:10:21 
3226 272JANA REMPALSKIARLINGTON VA200:29:171500:02:504803:18:552500:01:544102:18:01 06:10:55 
3337 309LESLIE STECKBECKALEXANDRIA VA7100:45:175100:03:523403:10:555900:03:202702:07:40 06:11:04 
3446A89SHERRY DOWDYFREDERICKSBURG VA4300:38:575800:04:083103:09:124000:02:273702:16:32 06:11:14 
3560 86MARY DENITTORHINEBECK NY4900:40:066800:04:334903:19:172000:01:432402:06:01 06:11:39 
3637 291MELANIE SHEPHERDSONWASHINGTON DC4600:39:116200:04:133903:12:454100:02:273502:15:12 06:13:46 
3740 166ANNIE KIRKLANDARLINGTON VA7500:46:372300:03:055803:23:20700:01:261602:00:14 06:14:40 
3848A346JANE WEISEMANBLACKSBURG VA5100:40:464700:03:453503:11:533900:02:263802:16:45 06:15:33 
3948 70PATRICIA CLIFFORDROCKVILLE MD2100:35:352800:03:133203:10:123700:02:234902:23:1000:04:0006:18:30 
4041 268AMY RANDOLPHVIRGINIA BEACH VA3200:36:396500:04:283603:11:586700:03:414702:22:35 06:19:18 
4136 52DEBRA BROSNIHANARLINGTON VA2400:35:533500:03:275103:19:474500:02:335702:28:41 06:30:17 
4226 75CHRISTINE COTTONARLINGTON VA1600:34:465900:04:117503:39:416300:03:353002:10:14 06:32:25 
4339 78KIMBERLY CRUZTOBACCOVILLE NC6500:43:317400:05:144103:14:33600:01:235602:28:25 06:33:04 
4449 127CINDY HAGANLUSBY MD8100:48:218200:06:194403:15:218300:05:574002:17:48 06:33:44 
4530A132JOY HANSONWASHINGTON DC5700:41:515500:04:045403:21:265800:03:185502:27:39 06:38:16 
4629 202ALICIA MARKEYNEWARK DE800:31:167900:06:027003:34:187200:03:485002:23:17 06:38:38 
4742 107HARRIET FINKLEROCKVILLE MD4400:39:037100:04:547103:34:196000:03:214302:19:00 06:40:35 
4831 325CARRIE TEMPLEARLINGTON VA8000:47:576700:04:325203:20:152900:02:045202:25:55 06:40:42 
4937 185RENEE LAUGHLINARLINGTON VA1400:34:312600:03:096203:28:403500:02:215902:32:04 06:40:42 
5033 126CHARLOTTE HADLEYFAIRFAX VA3500:36:564000:03:347303:39:066400:03:364202:18:09 06:41:19 
5137 157TRACY KAHNEYINDIAN HEAD MD6400:43:166100:04:136003:27:053600:02:215402:27:15 06:44:09 
5244 173ALEXANDRA KORABLEESBURG VA5200:41:134800:03:456603:31:035500:03:015302:26:03 06:45:03 
5342 216MICHELE MCGLEISHGERMANTOWN MD6900:44:165600:04:042003:00:204700:02:347502:55:02 06:46:15 
5427 302AMY SNEADNEWPORT NEWS VA7000:44:172200:03:044303:15:202300:01:456502:42:23 06:46:46 
5531 43CHRISTINE BARCAYCARY ND           06:46:48 
5635A262ANATHEA POWELLBETHESDA MD3800:37:383200:03:214203:15:026100:03:246902:47:28 06:46:53 
5728 96SARAH DURKINFREDERICKSBURG VA6600:43:337600:05:326703:32:015000:02:495102:23:37 06:47:31 
5834 151CATHERINE JONESARLINGTON VA2000:35:184400:03:397703:44:593300:02:154502:21:38 06:47:47 
5945 329DALE TISKARALEIGH NC    6503:30:558500:10:066002:32:44 06:59:20Y
6025 46KARI BEHNKEARLINGTON VA5800:42:033400:03:226903:33:595300:02:586202:37:51 07:00:11 
6122 227JAMIE MOLCSANANNAPOLIS MD7900:47:308800:09:397903:47:298200:04:463202:10:55 07:00:18 
PlaceAgeCat.BibNAMECITY/STATERankSWIMRankT1RankBIKERankT2RankRUNPENALTYTIMEDQ
6226 343ERIN WARDDRIPYORKTOWN VA6800:44:093000:03:157603:40:201300:01:355802:31:40 07:00:56 
6332 306NICOLE STAMBAUGHFREDERICK MD8901:00:508100:06:146403:29:516500:03:374802:22:49 07:03:20 
6437 287ANNA SCHWINGALEXANDRIA VA6700:43:508400:06:338904:02:407800:04:072502:06:42 07:03:49 
6522 307MEGAN STATELERANNAPOLIS MD8600:49:478700:07:258003:47:308100:04:433102:10:5500:04:0007:04:18 
6642 294CAROL SHUFORDBETHESDA MD3900:37:426400:04:286803:32:147300:03:537002:50:15 07:08:29 
6741A180LAURIE LADOWSOUTH BEND IN6200:42:487500:05:306103:27:287600:04:027202:54:00 07:13:47 
6843 244JP JULIE PALMERBLACKSBURG VA8500:49:393800:03:295003:19:451400:01:377702:59:59 07:14:28 
6949 184PAT LAPEKASCHARLOTTE NC8700:55:556600:04:304603:16:557700:04:067302:54:07 07:15:32 
7031 311ERICA STEELECLARKSBURG MD7600:46:425700:04:076303:28:425600:03:057102:53:32 07:16:07 
7142 177ELLEN KURLANDWASHINGTON DC6000:42:318000:06:095603:21:344300:02:298003:07:43 07:20:25 
7244 154MICHELLE JUDSONALEXANDRIA VA7400:46:065200:03:537803:46:047100:03:476402:41:00 07:20:47 
7335 331MARLENE TOMASZKIEWICZARLINGTON VA6100:42:473900:03:328103:47:324800:02:416702:45:26 07:21:56 
7428A290ANDREA SHEMELARLINGTON VA5000:40:188600:06:538503:55:205400:02:596602:44:32 07:29:59 
7550 62MARTHA CARPENTERKEEDYSVILLE MD7700:47:037700:05:427403:39:187400:03:567402:54:20 07:30:17 
7652 72PAMELA COLEMANWASHINGTON DC7800:47:298300:06:328603:56:127000:03:456102:37:02 07:30:58 
7746 68MERRI CLARKCALIFORNIA MD8200:49:097800:05:548703:57:083100:02:106302:40:05 07:34:25 
7839 147JOANNA IP DURIEALEXANDRIA VA8400:49:374300:03:368203:48:133800:02:247602:59:03 07:42:51 
7944A246SUE PARKSVIRGINIA BEACH VA    8403:51:364200:02:297803:01:21 07:42:51Y
8026 274KAT RICHFALLS CHURCH VA5900:42:058500:06:469004:06:046600:03:406802:46:49 07:45:21 
8133 196CHRISTY MAGEEFALLS CHURCH VA8300:49:175400:03:548804:00:446900:03:437903:01:25 07:59:02 
8249 120PAULINE GREGORYVESTAL NY7200:45:522700:03:095303:21:262700:02:02     
8342 87PAIGE DILLONROUND HILL VA3100:36:376000:04:112803:06:215200:02:53     
8426 279KRYSTEN ROSE-MCCULLYFALLS CHURCH VA5400:41:237300:05:017203:37:096800:03:41     
8527UF27REBECCA MOHRWASHINGTON DC400:29:304600:03:455903:26:418000:04:17     
8632 172CHRISTINE KOPSIDASPOTOMAC MD8800:56:467200:04:588303:51:158400:05:59     
8738UF28PATTY SHOAFDURHAM NC7300:45:59300:02:01102:34:56       
8826UF365KELZIE BEEBEWASHINGTON DC1000:32:162100:03:00502:45:52       
8942UF22BETSY BUTLERFREDERICKSBURG VA500:29:322500:03:072103:00:56       
9041UF25DEHAVEN HERRONCHESAPEAKE VA5600:41:421800:02:582403:02:37       
9135UF24JENNIFER DUNNLEESBURG VA2700:36:084500:03:435503:21:28       
9232 318SHANNON SULLIVANWASHINGTON DC4800:39:46           

** Results are for the private use of participants and are the Intellectual Property of Set Up Events. Unauthorized use of these results is prohibited.